FW7194 Weather Reports


Display with metric or nautical units.
time (UTC)temp
F
wind
direction
speed
MPH
gust
MPH
rain 1hr
in
rain 24hr
in
rain mn
in
humidity
%
barometer
mb
20260905201938 89 198 7.0 10.0 0.00 0.00 0.00 79 1010.2
20260905201433 89 239 4.0 9.0 0.00 0.00 0.00 79 1010.0
20260905200933 90 203 3.0 9.0 0.00 0.00 0.00 78 1010.2
20260905200429 90 211 9.0 11.0 0.00 0.00 0.00 78 1010.1
20260905195927 90 221 8.0 11.0 0.00 0.00 0.00 78 1010.1
20260905195422 90 222 2.0 7.0 0.00 0.00 0.00 78 1010.4
20260905194918 90 248 4.0 8.0 0.00 0.00 0.00 78 1010.2
20260905194417 90 229 6.0 8.0 0.00 0.00 0.00 78 1010.4
20260905193917 90 195 5.0 7.0 0.00 0.00 0.00 78 1010.4
20260905193412 90 235 2.0 5.0 0.00 0.00 0.00 78 1010.2
20260905192907 90 176 5.0 7.0 0.00 0.00 0.00 77 1010.6
20260905192403 91 224 2.0 10.0 0.00 0.00 0.00 78 1010.5
20260905191903 91 204 1.0 7.0 0.00 0.00 0.00 77 1010.8
20260905191402 91 258 2.0 7.0 0.00 0.00 0.00 77 1010.7
20260905190856 91 214 3.0 6.0 0.00 0.00 0.00 77 1010.9
20260905190354 91 228 3.0 5.0 0.00 0.00 0.00 76 1011.0
20260905185853 91 276 1.0 6.0 0.00 0.00 0.00 76 1011.0
20260905185349 91 247 0.0 3.0 0.00 0.00 0.00 76 1011.3
20260905184848 91 201 2.0 3.0 0.00 0.00 0.00 76 1011.4
20260905184347 91 251 3.0 5.0 0.00 0.00 0.00 76 1011.3
20260905183845 91 232 4.0 6.0 0.00 0.00 0.00 76 1011.6
20260905183341 91 235 3.0 7.0 0.00 0.00 0.00 76 1011.5
20260905182836 91 233 0.0 2.0 0.00 0.00 0.00 75 1011.5
20260905182335 91 221 2.0 2.0 0.00 0.00 0.00 76 1011.5
20260905181831 91 180 1.0 3.0 0.00 0.00 0.00 75 1011.7
20260905181330 91 201 6.0 7.0 0.00 0.00 0.00 75 1011.9
20260905180829 91 217 1.0 2.0 0.00 0.00 0.00 74 1011.8
20260905180325 91 219 4.0 6.0 0.00 0.00 0.00 74 1011.9
20260905175820 91 223 1.0 2.0 0.00 0.00 0.00 74 1012.0
20260905175320 91 232 1.0 2.0 0.00 0.00 0.00 74 1012.0
20260905174815 91 209 0.0 1.0 0.00 0.00 0.00 73 1012.2
20260905174311 92 225 2.0 2.0 0.00 0.00 0.00 73 1012.0
20260905173807 91 233 0.0 1.0 0.00 0.00 0.00 73 1012.2
20260905173303 91 230 1.0 2.0 0.00 0.00 0.00 73 1012.4
20260905172802 91 127 0.0 2.0 0.00 0.00 0.00 74 1012.4
20260905172301 91 227 0.0 2.0 0.00 0.00 0.00 74 1012.6
20260905171757 91 101 2.0 2.0 0.00 0.00 0.00 74 1012.8
20260905171253 91 215 2.0 3.0 0.00 0.00 0.00 74 1012.6
20260905170749 91 223 1.0 6.0 0.00 0.00 0.00 74 1012.6
20260905170245 91 204 1.0 1.0 0.00 0.00 0.00 74 1012.6
20260905165744 91 199 0.0 1.0 0.00 0.00 0.00 74 1012.8
20260905165240 91 215 0.0 7.0 0.00 0.00 0.00 75 1012.9
20260905164739 91 193 0.0 3.0 0.00 0.00 0.00 74 1013.1
20260905164235 91 258 0.0 6.0 0.00 0.00 0.00 74 1013.2
20260905163730 91 196 1.0 5.0 0.00 0.00 0.00 75 1013.2
20260905163227 90 166 0.0 3.0 0.00 0.00 0.00 76 1013.3
20260905162722 91 201 1.0 5.0 0.00 0.00 0.00 76 1013.2
20260905162222 91 203 1.0 2.0 0.00 0.00 0.00 76 1013.5
20260905161717 90 178 3.0 7.0 0.00 0.00 0.00 76 1013.7
20260905161215 90 188 3.0 6.0 0.00 0.00 0.00 77 1013.6
20260905160713 90 232 2.0 3.0 0.00 0.00 0.00 77 1013.7
20260905160208 90 202 0.0 2.0 0.00 0.00 0.00 78 1014.0
20260905155702 89 24 1.0 2.0 0.00 0.00 0.00 78 1013.8
20260905155202 90 224 1.0 1.0 0.00 0.00 0.00 78 1014.0
20260905154655 90 209 2.0 3.0 0.00 0.00 0.00 78 1013.8
20260905154151 90 187 2.0 5.0 0.00 0.00 0.00 79 1014.1
20260905153647 89 208 1.0 5.0 0.00 0.00 0.00 79 1014.0
20260905153142 89 170 1.0 2.0 0.00 0.00 0.00 80 1014.1
20260905152637 89 162 0.0 1.0 0.00 0.00 0.00 80 1014.0
20260905152131 89 190 1.0 1.0 0.00 0.00 0.00 80 1014.2
20260905151626 89 170 0.0 1.0 0.00 0.00 0.00 81 1014.0
20260905151122 88 165 0.0 3.0 0.00 0.00 0.00 82 1014.1
20260905150617 88 115 0.0 2.0 0.00 0.00 0.00 83 1014.1
20260905150116 88 161 1.0 2.0 0.00 0.00 0.00 84 1014.1
20260905145615 87 211 2.0 2.0 0.00 0.00 0.00 85 1014.3
20260905145114 86 234 2.0 3.0 0.00 0.00 0.00 86 1014.1
20260905144609 86 175 0.0 1.0 0.00 0.00 0.00 86 1014.2
20260905144108 86 115 1.0 2.0 0.00 0.00 0.00 86 1014.4
20260905143608 86 167 0.0 1.0 0.00 0.00 0.00 86 1014.1
20260905143103 87 156 1.0 2.0 0.00 0.00 0.00 86 1014.1
20260905142601 87 175 0.0 1.0 0.00 0.00 0.00 86 1014.2
20260905142055 86 190 1.0 3.0 0.00 0.00 0.00 87 1014.0
20260905141550 86 186 1.0 2.0 0.00 0.00 0.00 88 1014.0
20260905141047 86 138 0.0 1.0 0.00 0.00 0.00 88 1014.1
20260905140542 86 161 0.0 2.0 0.00 0.00 0.00 88 1014.2
20260905140041 86 149 0.0 2.0 0.00 0.00 0.00 88 1013.9
20260905135537 85 190 2.0 2.0 0.00 0.00 0.00 89 1014.1
20260905135036 85 186 0.0 1.0 0.00 0.00 0.00 90 1014.2
20260905134531 85 177 0.0 1.0 0.00 0.00 0.00 90 1014.1
20260905134030 85 118 0.0 1.0 0.00 0.00 0.00 90 1014.2
20260905133526 85 165 1.0 2.0 0.00 0.00 0.00 92 1014.0
20260905133025 84 197 1.0 1.0 0.00 0.00 0.00 93 1014.5
20260905132525 84 128 0.0 0.0 0.00 0.00 0.00 93 1014.3
20260905132020 84 152 0.0 1.0 0.00 0.00 0.00 93 1014.4
20260905131515 84 145 1.0 2.0 0.00 0.00 0.00 94 1014.2
20260905131010 83 119 1.0 2.0 0.00 0.00 0.00 95 1014.4
20260905130509 82 164 0.0 1.0 0.00 0.00 0.00 95 1014.4
20260905130004 82 112 0.0 1.0 0.00 0.00 0.00 96 1014.8
20260905125458 81 118 0.0 1.0 0.00 0.00 0.00 96 1014.5
20260905124954 81 140 0.0 1.0 0.00 0.00 0.00 96 1014.5
20260905124451 80 140 0.0 0.0 0.00 0.00 0.00 96 1014.3
20260905123946 80 139 0.0 2.0 0.00 0.00 0.00 96 1014.4
20260905123442 79 144 0.0 1.0 0.00 0.00 0.00 96 1014.1
20260905122937 79 133 0.0 0.0 0.00 0.00 0.00 95 1014.3
20260905122437 78 140 0.0 0.0 0.00 0.00 0.00 95 1014.2
20260905121932 78 139 0.0 0.0 0.00 0.00 0.00 95 1014.2
20260905121428 78 139 0.0 0.0 0.00 0.00 0.00 95 1014.2
20260905120926 78 140 0.0 0.0 0.00 0.00 0.00 95 1014.3
20260905120421 78 144 0.0 0.0 0.00 0.00 0.00 95 1014.1
20260905115917 77 148 0.0 0.0 0.00 0.00 0.00 95 1014.1
20260905115416 77 157 0.0 0.0 0.00 0.00 0.00 95 1014.2
20260905114911 77 159 0.0 0.0 0.00 0.00 0.00 95 1014.1
20260905114410 77 153 0.0 0.0 0.00 0.00 0.00 95 1014.2
20260905113909 77 189 0.0 0.0 0.00 0.00 0.00 94 1013.9
20260905113405 77 201 0.0 0.0 0.00 0.00 0.00 94 1013.9
20260905112900 77 203 0.0 0.0 0.00 0.00 0.00 94 1013.9
20260905112355 77 190 0.0 0.0 0.00 0.00 0.00 94 1013.9
20260905111850 77 204 0.0 0.0 0.00 0.00 0.00 94 1013.9
20260905111344 77 210 0.0 0.0 0.00 0.00 0.00 94 1013.6
20260905110844 77 211 0.0 0.0 0.00 0.00 0.00 94 1013.8
20260905110338 77 212 0.0 0.0 0.00 0.00 0.00 94 1013.8
20260905105833 77 190 0.0 0.0 0.00 0.00 0.00 94 1013.6
20260905105333 77 190 0.0 0.0 0.00 0.00 0.00 94 1013.7
20260905104827 77 180 0.0 0.0 0.00 0.00 0.00 94 1013.7
20260905104324 77 190 0.0 0.0 0.00 0.00 0.00 94 1013.7
20260905103823 77 189 0.0 0.0 0.00 0.00 0.00 94 1013.8
20260905103319 77 190 0.0 0.0 0.00 0.00 0.00 94 1013.9
20260905102814 77 201 0.0 0.0 0.00 0.00 0.00 94 1013.9
20260905102311 77 202 0.0 0.0 0.00 0.00 0.00 94 1013.9
20260905101810 77 199 0.0 0.0 0.00 0.00 0.00 94 1014.0
20260905101309 77 196 0.0 0.0 0.00 0.00 0.00 94 1013.7
20260905100803 77 200 0.0 0.0 0.00 0.00 0.00 94 1013.7
20260905100259 77 201 0.0 0.0 0.00 0.00 0.00 94 1013.6
20260905095758 77 204 0.0 0.0 0.00 0.00 0.00 94 1013.7
20260905095253 77 181 0.0 0.0 0.00 0.00 0.00 94 1013.6
20260905094748 77 204 0.0 0.0 0.00 0.00 0.00 94 1013.5
20260905094243 78 204 0.0 0.0 0.00 0.00 0.00 94 1013.6
20260905093742 78 204 0.0 0.0 0.00 0.00 0.00 94 1013.5
20260905093238 78 204 0.0 0.0 0.00 0.00 0.00 94 1013.3
20260905092733 78 203 0.0 0.0 0.00 0.00 0.00 94 1013.5
20260905092229 78 204 0.0 0.0 0.00 0.00 0.00 94 1013.4
20260905091729 78 204 0.0 0.0 0.00 0.00 0.00 94 1013.4
20260905091223 78 204 0.0 0.0 0.00 0.00 0.00 94 1013.4
20260905090723 78 200 0.0 0.0 0.00 0.00 0.00 94 1013.5
20260905090219 78 196 0.0 0.0 0.00 0.00 0.00 94 1013.4
20260905085717 78 196 0.0 0.0 0.00 0.00 0.00 94 1013.6
20260905085212 78 199 0.0 0.0 0.00 0.00 0.00 93 1013.4
20260905084707 78 201 0.0 0.0 0.00 0.00 0.00 93 1013.4
20260905084206 78 206 0.0 0.0 0.00 0.00 0.00 93 1013.3
20260905083701 78 209 0.0 0.0 0.00 0.00 0.00 93 1013.4
20260905083157 78 209 0.0 0.0 0.00 0.00 0.00 93 1013.5
20260905082654 78 210 0.0 0.0 0.00 0.00 0.00 93 1013.4
20260905082149 78 210 0.0 0.0 0.00 0.00 0.00 93 1013.6
20260905081649 78 210 0.0 0.0 0.00 0.00 0.00 93 1013.3
20260905081144 78 210 0.0 0.0 0.00 0.00 0.00 93 1013.5
20260905080638 78 211 0.0 0.0 0.00 0.00 0.00 93 1013.4
20260905080133 78 214 0.0 0.0 0.00 0.00 0.00 93 1013.4
20260905075631 78 207 0.0 0.0 0.00 0.00 0.00 93 1013.5
20260905075126 78 208 0.0 0.0 0.00 0.00 0.00 93 1013.4
20260905074625 78 209 0.0 0.0 0.00 0.00 0.00 93 1013.3
20260905074121 78 213 0.0 0.0 0.00 0.00 0.00 93 1013.4
20260905073616 78 214 0.0 0.0 0.00 0.00 0.00 93 1013.3
20260905073112 78 207 0.0 0.0 0.00 0.00 0.00 93 1013.3
20260905072611 78 204 0.0 0.0 0.00 0.00 0.00 93 1013.4
20260905072107 78 199 0.0 0.0 0.00 0.00 0.00 93 1013.4
20260905071603 78 194 0.0 0.0 0.00 0.00 0.00 93 1013.4
20260905071103 78 194 0.0 0.0 0.00 0.00 0.00 93 1013.4
20260905070558 78 195 0.0 0.0 0.00 0.00 0.00 93 1013.5
20260905070054 78 191 0.0 0.0 0.00 0.00 0.00 93 1013.4
20260905065552 78 194 0.0 0.0 0.00 0.00 0.00 93 1013.3
20260905065047 78 204 0.0 0.0 0.00 0.00 0.00 93 1013.6
20260905064547 78 206 0.0 0.0 0.00 0.00 0.00 93 1013.6
20260905064043 78 201 0.0 0.0 0.00 0.00 0.00 93 1013.6
20260905063541 78 206 0.0 0.0 0.00 0.00 0.00 92 1013.6
20260905063038 78 206 0.0 0.0 0.00 0.00 0.00 92 1013.7
20260905062533 78 191 0.0 0.0 0.00 0.00 0.00 92 1013.8
20260905062033 78 201 0.0 0.0 0.00 0.00 0.00 92 1013.8
20260905061528 78 203 0.0 0.0 0.00 0.00 0.00 92 1013.9
20260905061027 78 201 0.0 0.0 0.00 0.00 0.00 92 1013.9
20260905060523 78 203 0.0 0.0 0.00 0.00 0.00 92 1014.2
20260905060019 78 197 0.0 0.0 0.00 0.00 0.00 92 1014.1
20260905055517 78 201 0.0 0.0 0.00 0.00 0.00 92 1014.2
20260905055012 78 192 0.0 1.0 0.00 0.00 0.00 92 1014.3
20260905054508 78 195 0.0 0.0 0.00 0.00 0.00 92 1014.2
20260905054003 78 216 0.0 0.0 0.00 0.00 0.00 92 1014.5
20260905053457 78 217 0.0 0.0 0.00 0.00 0.00 92 1014.3
20260905052953 78 224 0.0 0.0 0.00 0.00 0.00 92 1014.4
20260905052453 78 222 0.0 0.0 0.00 0.00 0.00 92 1014.3
20260905051952 78 222 0.0 0.0 0.00 0.00 0.00 91 1014.3
20260905051447 79 214 0.0 0.0 0.00 0.00 0.00 91 1014.3
20260905050945 79 214 0.0 0.0 0.00 0.00 0.00 91 1014.3
20260905050440 79 216 0.0 0.0 0.00 0.00 0.00 91 1014.5
20260905045937 79 216 0.0 0.0 0.00 0.00 0.00 91 1014.8
20260905045431 79 221 0.0 0.0 0.00 0.00 0.00 91 1014.8
20260905044927 79 226 0.0 0.0 0.00 0.00 0.00 91 1014.7
20260905044421 79 220 0.0 0.0 0.00 0.00 0.00 91 1014.8
20260905043921 79 211 0.0 0.0 0.00 0.00 0.00 91 1014.8
20260905043420 79 216 0.0 0.0 0.00 0.00 0.00 91 1014.9
20260905042915 79 216 0.0 0.0 0.00 0.00 0.00 91 1015.0
20260905042410 79 208 0.0 0.0 0.00 0.00 0.00 91 1014.9
20260905041905 79 210 0.0 0.0 0.00 0.00 0.00 91 1015.1
20260905041400 79 197 0.0 0.0 0.00 0.00 0.00 90 1015.1
20260905040855 79 220 0.0 0.0 0.00 0.00 0.00 90 1015.5
20260905040355 79 223 0.0 0.0 0.00 0.00 0.00 90 1015.2
20260905035854 79 223 0.0 0.0 0.00 0.00 0.00 90 1015.3
20260905035349 80 205 0.0 0.0 0.00 0.00 0.00 90 1015.2
20260905034846 80 203 0.0 0.0 0.00 0.00 0.00 90 1015.0
20260905034341 80 201 0.0 0.0 0.00 0.00 0.00 90 1015.2
20260905033840 80 213 0.0 0.0 0.00 0.00 0.00 90 1015.3
20260905033336 80 215 0.0 0.0 0.00 0.00 0.00 90 1015.4
20260905032835 80 220 0.0 0.0 0.00 0.00 0.00 90 1015.6
20260905032331 80 222 0.0 0.0 0.00 0.00 0.00 89 1015.7
20260905031826 80 220 0.0 0.0 0.00 0.00 0.00 89 1015.6
20260905031321 80 219 0.0 0.0 0.00 0.00 0.00 89 1015.5
20260905030816 80 216 0.0 0.0 0.00 0.00 0.00 89 1015.6
20260905030312 80 221 0.0 0.0 0.00 0.00 0.00 89 1015.7
20260905025811 80 216 0.0 0.0 0.00 0.00 0.00 89 1015.6
20260905025306 80 204 0.0 1.0 0.00 0.00 0.00 89 1015.6
20260905024802 80 217 0.0 1.0 0.00 0.00 0.00 89 1015.5
20260905024258 81 201 0.0 0.0 0.00 0.00 0.00 89 1015.5
20260905023753 81 217 0.0 0.0 0.00 0.00 0.00 89 1015.5
20260905023248 81 219 0.0 0.0 0.00 0.00 0.00 88 1015.5
20260905022747 81 226 1.0 1.0 0.00 0.00 0.00 88 1015.5
20260905022243 81 219 0.0 0.0 0.00 0.00 0.00 88 1015.5
20260905021742 81 229 0.0 3.0 0.00 0.00 0.00 88 1015.6
20260905021237 81 220 1.0 3.0 0.00 0.00 0.00 88 1015.5
20260905020732 81 219 1.0 5.0 0.00 0.00 0.00 88 1015.4
20260905020227 81 217 3.0 3.0 0.00 0.00 0.00 88 1015.6
20260905015726 81 238 1.0 3.0 0.00 0.00 0.00 88 1015.5
20260905015221 81 203 2.0 5.0 0.00 0.00 0.00 88 1015.5
20260905014719 81 215 0.0 1.0 0.00 0.00 0.00 88 1015.5
20260905014215 81 218 1.0 3.0 0.00 0.00 0.00 87 1015.8
20260905013711 81 240 3.0 3.0 0.00 0.00 0.00 87 1015.5
20260905013207 81 173 1.0 5.0 0.00 0.00 0.00 87 1015.6
20260905012702 81 225 1.0 3.0 0.00 0.00 0.00 87 1015.7
20260905012158 81 205 1.0 3.0 0.00 0.00 0.00 87 1015.6
20260905011654 81 206 0.0 3.0 0.00 0.00 0.00 87 1015.6
20260905011150 82 213 1.0 2.0 0.00 0.00 0.00 87 1015.6
20260905010644 82 207 2.0 2.0 0.00 0.00 0.00 87 1015.4
20260905010140 82 199 0.0 1.0 0.00 0.00 0.00 86 1015.6
20260905005636 82 199 1.0 2.0 0.00 0.00 0.00 86 1015.2
20260905005131 82 189 1.0 2.0 0.00 0.00 0.00 86 1015.4
20260905004631 82 212 1.0 2.0 0.00 0.00 0.00 86 1015.3
20260905004120 82 227 0.0 3.0 0.00 0.00 0.00 86 1015.3
20260905003616 82 205 1.0 1.0 0.00 0.00 0.00 86 1015.1
20260905003112 82 203 0.0 2.0 0.00 0.00 0.00 86 1015.0
20260905002607 82 199 0.0 2.0 0.00 0.00 0.00 85 1015.0
20260905002102 82 222 3.0 3.0 0.00 0.00 0.00 85 1015.0
20260905001557 83 212 1.0 2.0 0.00 0.00 0.00 85 1015.1
20260905001056 83 235 1.0 5.0 0.00 0.00 0.00 85 1015.0
20260905000551 83 207 0.0 2.0 0.00 0.00 0.00 85 1015.1
20260905000048 83 206 0.0 2.0 0.00 0.00 0.00 85 1014.9
20260904235542 83 207 0.0 1.0 0.00 0.00 0.00 84 1014.9
20260904235036 83 216 1.0 3.0 0.00 0.00 0.00 84 1014.9
20260904234531 83 242 2.0 5.0 0.00 0.00 0.00 84 1014.8
20260904234027 83 207 1.0 5.0 0.00 0.00 0.00 84 1015.2
20260904233521 84 238 1.0 2.0 0.00 0.00 0.00 84 1014.8
20260904233018 84 188 2.0 5.0 0.00 0.00 0.00 84 1015.1
20260904232514 84 207 4.0 13.0 0.00 0.00 0.00 83 1014.9
20260904232011 84 193 3.0 10.0 0.00 0.00 0.00 83 1014.8
20260904231506 84 193 3.0 8.0 0.00 0.00 0.00 83 1015.0
20260904231000 84 189 7.0 10.0 0.00 0.00 0.00 83 1014.9
20260904230459 84 222 5.0 6.0 0.00 0.00 0.00 83 1014.7
20260904225954 84 194 4.0 5.0 0.00 0.00 0.00 83 1014.9
20260904225453 84 229 5.0 7.0 0.00 0.00 0.00 83 1014.7
20260904224953 84 224 4.0 9.0 0.00 0.00 0.00 82 1014.6
20260904224448 84 209 4.0 9.0 0.00 0.00 0.00 82 1014.6
20260904223948 85 173 6.0 13.0 0.00 0.00 0.00 82 1014.6
20260904223447 85 197 6.0 8.0 0.00 0.00 0.00 82 1014.7
20260904222943 85 199 4.0 7.0 0.00 0.00 0.00 82 1014.6
20260904222438 85 194 4.0 7.0 0.00 0.00 0.00 82 1014.5
20260904221938 85 209 5.0 9.0 0.00 0.00 0.00 81 1014.5
20260904221432 85 195 5.0 10.0 0.00 0.00 0.00 81 1014.6
20260904220928 85 200 5.0 10.0 0.00 0.00 0.00 81 1014.7
20260904220428 85 101 3.0 10.0 0.00 0.00 0.00 81 1014.8
20260904215923 85 184 6.0 11.0 0.00 0.00 0.00 81 1014.6
20260904215418 86 138 6.0 10.0 0.00 0.00 0.00 81 1014.8
20260904214914 86 207 6.0 8.0 0.00 0.00 0.00 81 1014.8
20260904214410 86 218 6.0 9.0 0.00 0.00 0.00 81 1014.8
20260904213909 86 213 7.0 10.0 0.00 0.00 0.00 81 1015.0
20260904213403 86 243 3.0 13.0 0.00 0.00 0.00 81 1015.0
20260904212859 86 201 2.0 9.0 0.00 0.00 0.00 80 1014.8
20260904212358 86 206 7.0 9.0 0.00 0.00 0.00 80 1014.9
20260904211855 86 179 3.0 5.0 0.00 0.00 0.00 80 1014.7
20260904211355 86 122 4.0 11.0 0.00 0.00 0.00 80 1014.8
20260904210850 86 161 3.0 8.0 0.00 0.00 0.00 79 1014.8
20260904210349 86 212 3.0 7.0 0.00 0.00 0.00 79 1014.8
20260904205846 87 129 4.0 8.0 0.00 0.00 0.00 79 1014.7
20260904205341 87 206 4.0 8.0 0.00 0.00 0.00 78 1015.0
20260904204838 87 190 5.0 10.0 0.00 0.00 0.00 78 1014.9
20260904204333 87 140 4.0 8.0 0.00 0.00 0.00 78 1015.1
20260904203829 87 204 6.0 8.0 0.00 0.00 0.00 78 1015.3
20260904203326 87 203 4.0 6.0 0.00 0.00 0.00 78 1015.2
20260904202821 87 163 3.0 7.0 0.00 0.00 0.00 78 1015.3
20260904202317 87 213 2.0 9.0 0.00 0.00 0.00 78 1015.2